Regional Weather Roundup
Issued by NWS

Home | Current Version | Previous Version | Graphics & Text | Print | Product List | Glossary On
Versions: 1 2 3 4 5 6 7 8 9 10 11 12 13 14 15 16 17 18 19 20 21 22 23 24 25 26 27 28 29 30 31 32 33 34 35 36 37 38 39 40 41 42 43 44 45 46 47 48 49 50
000
ASUS43 KFSD 161410
RWRSD

WEATHER ROUNDUP FOR SOUTH DAKOTA
NATIONAL WEATHER SERVICE SIOUX FALLS SD
800 AM CST TUE JAN 16 2018

NOTE: "FAIR" INDICATES FEW OR NO CLOUDS BELOW 12,000 FEET WITH NO
SIGNIFICANT WEATHER AND/OR OBSTRUCTIONS TO VISIBILITY.


SDZ001>005-009-010-012>017-161500-
NORTHWEST AND NORTH CENTRAL SOUTH DAKOTA

CITY           SKY/WX    TMP DP  RH WIND       PRES   REMARKS
BUFFALO          N/A     -9 -15  75 S9        30.39F WCI -26
FAITH            N/A    -10 -16  74 S15       30.57F WCI -32
MOBRIDGE       FAIR     -17 -24  70 CALM      30.67F
$$

SDZ012>016-024>037-041>051-057-063-072>074-161500-
SOUTHWEST AND SOUTH CENTRAL SOUTH DAKOTA

CITY           SKY/WX    TMP DP  RH WIND       PRES   REMARKS
RAPID CTY ARPT FAIR     -10 -15  78 E3        30.53F
PIERRE         FAIR     -12 -16  82 SW7       30.74S WCI -27
CUSTER         FAIR       0 -21  36 NW3       30.35S
ELLSWORTH AFB  FAIR      -3 -10  72 W5        30.51F WCI -14
PHILIP         FAIR     -15 -19  82 CALM      30.69F
PINE RIDGE     FAIR     -19 -24  77 CALM      30.57F
SPEARFISH        N/A      3  -8  60 S7        30.43F WCI  -9
WINNER         FAIR      -7 -14  71 W8        30.73S WCI -23
$$

SDZ004>011-016>023-039-040-161500-
NORTHEAST SOUTH DAKOTA

CITY           SKY/WX    TMP DP  RH WIND       PRES   REMARKS
ABERDEEN       FAIR     -18 -23  77 SW5       30.77F WCI -31
WATERTOWN      FAIR     -12 -16  82 NW8       30.68S WCI -29
BROOKINGS      CLOUDY    -9 -12  87 NW9       30.69F WCI -26
SISSETON         N/A    -10 -17  71 NW10      30.74F WCI -29
$$

SDZ017-020-022-023-036>040-048>070-161500-
SOUTHEAST SOUTH DAKOTA

CITY           SKY/WX    TMP DP  RH WIND       PRES   REMARKS
SIOUX FALLS    MOCLDY    -7 -11  83 NW10      30.72S WCI -25
HURON          FAIR     -12 -17  78 NW9       30.78F WCI -30
CHAMBERLAIN    FAIR      -8 -13  78 W6        30.76S WCI -21
MITCHELL       CLOUDY    -7 -13  75 W8        30.80S WCI -23
YANKTON        CLOUDY    -7 -13  75 NW14      30.79S WCI -28
$$

ABBREVIATIONS USED IN REMARKS
   TC - TEMPERATURE IN CELSIUS
  WCI - WIND CHILL INDEX
   HX - HEAT INDEX
  VSB - VISIBILITY





USA.gov is the U.S. government's official web portal to all federal, state and local government web resources and services.